Tracking 29892 objects as of 21-Nov-2024
HD Live streaming from Space Station
objects crossing your sky now

SL-16 DEB

Track SL-16 DEB now!
10-day predictions


NORAD ID: 39302
Int'l Code: 1992-093JT
Perigee: 730.1 km
Apogee: 908.6 km
Inclination: 71.0 °
Period: 101.1 minutes
Semi major axis: 7190 km
RCS: 0.0001 m2 (small)
Launch date: December 25, 1992
Source: Commonwealth of Independent States (former USSR) (CIS)
Launch site: TYURATAM MISSILE AND SPACE COMPLEX (TTMTR)

Note: This is SATELLITE DEBRIS
Your satellite tracking list
Your tracking list is empty




NASA's NSSDC Master Catalog

Two Line Element Set (TLE):
1 39302U 92093JT  24324.27076998  .00004955  00000-0  20135-2 0  9999
2 39302  70.9873 146.3373 0124121 122.9741  49.5589 14.23900728576168
Source of the keplerian elements: AFSPC